owner,sensor,date,latitude,longitude,relative_humidity,qcFlag 
DISL,ioos:station:DISL:CATA:1,2016-06-01T00:00:00Z,30.3085,-88.1395,70.16,1111122 
DISL,ioos:station:DISL:CATA:1,2016-06-01T00:30:00Z,30.3085,-88.1395,66.7,1111122 
DISL,ioos:station:DISL:CATA:1,2016-06-01T01:00:00Z,30.3085,-88.1395,69.2,1111122 
DISL,ioos:station:DISL:CATA:1,2016-06-01T01:30:00Z,30.3085,-88.1395,68.45,1111122 
DISL,ioos:station:DISL:CATA:1,2016-06-01T02:00:00Z,30.3085,-88.1395,70.54,1111122 
DISL,ioos:station:DISL:CATA:1,2016-06-01T02:30:00Z,30.3085,-88.1395,68.04,1111122 
DISL,ioos:station:DISL:CATA:1,2016-06-01T03:00:00Z,30.3085,-88.1395,67.49,1111122 
DISL,ioos:station:DISL:CATA:1,2016-06-01T03:30:00Z,30.3085,-88.1395,67.04,1111122 
DISL,ioos:station:DISL:CATA:1,2016-06-01T04:00:00Z,30.3085,-88.1395,65.23,1111122 
DISL,ioos:station:DISL:CATA:1,2016-06-01T04:30:00Z,30.3085,-88.1395,65.78,1111122 
DISL,ioos:station:DISL:CATA:1,2016-06-01T05:00:00Z,30.3085,-88.1395,64.68,1111122 
DISL,ioos:station:DISL:CATA:1,2016-06-01T05:30:00Z,30.3085,-88.1395,66.84,1111122 
DISL,ioos:station:DISL:CATA:1,2016-06-01T06:30:00Z,30.3085,-88.1395,66.02,1111122 
DISL,ioos:station:DISL:CATA:1,2016-06-01T07:00:00Z,30.3085,-88.1395,63.93,1111122 
DISL,ioos:station:DISL:CATA:1,2016-06-01T07:30:00Z,30.3085,-88.1395,67.32,1111122 
DISL,ioos:station:DISL:CATA:1,2016-06-01T08:00:00Z,30.3085,-88.1395,66.46,1111122 
DISL,ioos:station:DISL:CATA:1,2016-06-01T08:30:00Z,30.3085,-88.1395,64.96,1111122 
DISL,ioos:station:DISL:CATA:1,2016-06-01T09:00:00Z,30.3085,-88.1395,67.19,1111122 
DISL,ioos:station:DISL:CATA:1,2016-06-01T09:30:00Z,30.3085,-88.1395,68.18,1111122 
DISL,ioos:station:DISL:CATA:1,2016-06-01T10:00:00Z,30.3085,-88.1395,65.96,1111122 
DISL,ioos:station:DISL:CATA:1,2016-06-01T10:30:00Z,30.3085,-88.1395,71.99,1111122 
DISL,ioos:station:DISL:CATA:1,2016-06-01T11:00:00Z,30.3085,-88.1395,80.4,1111122 
DISL,ioos:station:DISL:CATA:1,2016-06-01T11:30:00Z,30.3085,-88.1395,78.88,1111122 
DISL,ioos:station:DISL:CATA:1,2016-06-01T12:00:00Z,30.3085,-88.1395,77.03,1111122 
DISL,ioos:station:DISL:CATA:1,2016-06-01T12:30:00Z,30.3085,-88.1395,71.61,1111122 
DISL,ioos:station:DISL:CATA:1,2016-06-01T13:00:00Z,30.3085,-88.1395,71.09,1111122 
DISL,ioos:station:DISL:CATA:1,2016-06-01T13:30:00Z,30.3085,-88.1395,73.66,1111122 
DISL,ioos:station:DISL:CATA:1,2016-06-01T14:00:00Z,30.3085,-88.1395,77.12,1111122 
DISL,ioos:station:DISL:CATA:1,2016-06-01T14:30:00Z,30.3085,-88.1395,74.44,1111122 
DISL,ioos:station:DISL:CATA:1,2016-06-01T15:00:00Z,30.3085,-88.1395,73.19,1111122 
DISL,ioos:station:DISL:CATA:1,2016-06-01T15:30:00Z,30.3085,-88.1395,73.94,1111122 
DISL,ioos:station:DISL:CATA:1,2016-06-01T16:00:00Z,30.3085,-88.1395,73.39,1111122 
DISL,ioos:station:DISL:CATA:1,2016-06-01T16:30:00Z,30.3085,-88.1395,66.3,1111122 
DISL,ioos:station:DISL:CATA:1,2016-06-01T17:00:00Z,30.3085,-88.1395,69.11,1111122 
DISL,ioos:station:DISL:CATA:1,2016-06-01T17:30:00Z,30.3085,-88.1395,65.79,1111122 
DISL,ioos:station:DISL:CATA:1,2016-06-01T18:00:00Z,30.3085,-88.1395,67.54,1111122 
DISL,ioos:station:DISL:CATA:1,2016-06-01T18:30:00Z,30.3085,-88.1395,70.72,1111122 
DISL,ioos:station:DISL:CATA:1,2016-06-01T19:00:00Z,30.3085,-88.1395,68.96,1111122 
DISL,ioos:station:DISL:CATA:1,2016-06-01T19:30:00Z,30.3085,-88.1395,66.86,1111122 
DISL,ioos:station:DISL:CATA:1,2016-06-01T20:00:00Z,30.3085,-88.1395,62.83,1111122 
DISL,ioos:station:DISL:CATA:1,2016-06-01T20:30:00Z,30.3085,-88.1395,64.75,1111122 
DISL,ioos:station:DISL:CATA:1,2016-06-01T21:00:00Z,30.3085,-88.1395,63.62,1111122 
DISL,ioos:station:DISL:CATA:1,2016-06-01T21:30:00Z,30.3085,-88.1395,64.44,1111122 
DISL,ioos:station:DISL:CATA:1,2016-06-01T22:00:00Z,30.3085,-88.1395,66.46,1111122 
DISL,ioos:station:DISL:CATA:1,2016-06-01T22:30:00Z,30.3085,-88.1395,65.91,1111122 
DISL,ioos:station:DISL:CATA:1,2016-06-01T23:00:00Z,30.3085,-88.1395,63.89,1111122 
DISL,ioos:station:DISL:CATA:1,2016-06-01T23:30:00Z,30.3085,-88.1395,62.93,1111122 
DISL,ioos:station:DISL:CATA:1,2016-06-02T00:00:00Z,30.3085,-88.1395,67.04,1111122 
DISL,ioos:station:DISL:CATA:1,2016-06-02T00:30:00Z,30.3085,-88.1395,67.59,1111122 
DISL,ioos:station:DISL:CATA:1,2016-06-02T01:00:00Z,30.3085,-88.1395,68.0,1111122 
DISL,ioos:station:DISL:CATA:1,2016-06-02T01:30:00Z,30.3085,-88.1395,68.24,1111122 
DISL,ioos:station:DISL:CATA:1,2016-06-02T02:00:00Z,30.3085,-88.1395,66.36,1111122 
DISL,ioos:station:DISL:CATA:1,2016-06-02T02:30:00Z,30.3085,-88.1395,67.39,1111122 
DISL,ioos:station:DISL:CATA:1,2016-06-02T03:00:00Z,30.3085,-88.1395,66.4,1111122 
DISL,ioos:station:DISL:CATA:1,2016-06-02T03:30:00Z,30.3085,-88.1395,67.6,1111122 
DISL,ioos:station:DISL:CATA:1,2016-06-02T04:00:00Z,30.3085,-88.1395,66.47,1111122 
DISL,ioos:station:DISL:CATA:1,2016-06-02T04:30:00Z,30.3085,-88.1395,69.11,1111122 
DISL,ioos:station:DISL:CATA:1,2016-06-02T05:00:00Z,30.3085,-88.1395,69.96,1111122 
DISL,ioos:station:DISL:CATA:1,2016-06-02T05:30:00Z,30.3085,-88.1395,68.39,1111122 
DISL,ioos:station:DISL:CATA:1,2016-06-02T06:30:00Z,30.3085,-88.1395,69.83,1111122 
DISL,ioos:station:DISL:CATA:1,2016-06-02T07:00:00Z,30.3085,-88.1395,69.21,1111122 
DISL,ioos:station:DISL:CATA:1,2016-06-02T07:30:00Z,30.3085,-88.1395,67.88,1111122 
DISL,ioos:station:DISL:CATA:1,2016-06-02T08:00:00Z,30.3085,-88.1395,66.27,1111122 
DISL,ioos:station:DISL:CATA:1,2016-06-02T08:30:00Z,30.3085,-88.1395,67.94,1111122 
DISL,ioos:station:DISL:CATA:1,2016-06-02T09:00:00Z,30.3085,-88.1395,67.64,1111122 
DISL,ioos:station:DISL:CATA:1,2016-06-02T09:30:00Z,30.3085,-88.1395,70.0,1111122 
DISL,ioos:station:DISL:CATA:1,2016-06-02T10:00:00Z,30.3085,-88.1395,68.36,1111122 
DISL,ioos:station:DISL:CATA:1,2016-06-02T10:30:00Z,30.3085,-88.1395,68.91,1111122 
DISL,ioos:station:DISL:CATA:1,2016-06-02T11:00:00Z,30.3085,-88.1395,70.76,1111122 
DISL,ioos:station:DISL:CATA:1,2016-06-02T11:30:00Z,30.3085,-88.1395,69.42,1111122 
DISL,ioos:station:DISL:CATA:1,2016-06-02T12:00:00Z,30.3085,-88.1395,67.33,1111122 
DISL,ioos:station:DISL:CATA:1,2016-06-02T12:30:00Z,30.3085,-88.1395,64.58,1111122 
DISL,ioos:station:DISL:CATA:1,2016-06-02T13:00:00Z,30.3085,-88.1395,64.41,1111122 
DISL,ioos:station:DISL:CATA:1,2016-06-02T13:30:00Z,30.3085,-88.1395,63.21,1111122 
DISL,ioos:station:DISL:CATA:1,2016-06-02T14:00:00Z,30.3085,-88.1395,63.0,1111122 
DISL,ioos:station:DISL:CATA:1,2016-06-02T14:30:00Z,30.3085,-88.1395,63.02,1111122 
DISL,ioos:station:DISL:CATA:1,2016-06-02T15:00:00Z,30.3085,-88.1395,60.24,1111122 
DISL,ioos:station:DISL:CATA:1,2016-06-02T15:30:00Z,30.3085,-88.1395,63.8,1111122 
DISL,ioos:station:DISL:CATA:1,2016-06-02T16:00:00Z,30.3085,-88.1395,61.75,1111122 
DISL,ioos:station:DISL:CATA:1,2016-06-02T16:30:00Z,30.3085,-88.1395,68.08,1111122 
DISL,ioos:station:DISL:CATA:1,2016-06-02T17:00:00Z,30.3085,-88.1395,69.11,1111122 
DISL,ioos:station:DISL:CATA:1,2016-06-02T17:30:00Z,30.3085,-88.1395,63.0,1111122 
DISL,ioos:station:DISL:CATA:1,2016-06-02T18:00:00Z,30.3085,-88.1395,60.83,1111122 
DISL,ioos:station:DISL:CATA:1,2016-06-02T18:30:00Z,30.3085,-88.1395,65.22,1111122 
DISL,ioos:station:DISL:CATA:1,2016-06-02T19:00:00Z,30.3085,-88.1395,65.26,1111122 
DISL,ioos:station:DISL:CATA:1,2016-06-02T19:30:00Z,30.3085,-88.1395,63.82,1111122 
DISL,ioos:station:DISL:CATA:1,2016-06-02T20:00:00Z,30.3085,-88.1395,65.57,1111122 
DISL,ioos:station:DISL:CATA:1,2016-06-02T20:30:00Z,30.3085,-88.1395,63.37,1111122 
DISL,ioos:station:DISL:CATA:1,2016-06-02T21:00:00Z,30.3085,-88.1395,62.35,1111122 
DISL,ioos:station:DISL:CATA:1,2016-06-02T21:30:00Z,30.3085,-88.1395,64.36,1111122 
DISL,ioos:station:DISL:CATA:1,2016-06-02T22:00:00Z,30.3085,-88.1395,63.96,1111122 
DISL,ioos:station:DISL:CATA:1,2016-06-02T22:30:00Z,30.3085,-88.1395,63.72,1111122 
DISL,ioos:station:DISL:CATA:1,2016-06-02T23:00:00Z,30.3085,-88.1395,63.48,1111122 
DISL,ioos:station:DISL:CATA:1,2016-06-02T23:30:00Z,30.3085,-88.1395,61.87,1111122 
DISL,ioos:station:DISL:CATA:1,2016-06-03T00:00:00Z,30.3085,-88.1395,65.4,1111122 
DISL,ioos:station:DISL:CATA:1,2016-06-03T00:30:00Z,30.3085,-88.1395,71.57,1111122 
DISL,ioos:station:DISL:CATA:1,2016-06-03T01:00:00Z,30.3085,-88.1395,69.03,1111122 
DISL,ioos:station:DISL:CATA:1,2016-06-03T01:30:00Z,30.3085,-88.1395,71.87,1111122 
DISL,ioos:station:DISL:CATA:1,2016-06-03T02:00:00Z,30.3085,-88.1395,73.25,1111122 
DISL,ioos:station:DISL:CATA:1,2016-06-03T02:30:00Z,30.3085,-88.1395,69.13,1111122 
DISL,ioos:station:DISL:CATA:1,2016-06-03T03:00:00Z,30.3085,-88.1395,68.11,1111122 
DISL,ioos:station:DISL:CATA:1,2016-06-03T03:30:00Z,30.3085,-88.1395,71.71,1111122 
DISL,ioos:station:DISL:CATA:1,2016-06-03T04:00:00Z,30.3085,-88.1395,73.18,1111122 
DISL,ioos:station:DISL:CATA:1,2016-06-03T04:30:00Z,30.3085,-88.1395,74.51,1111122 
DISL,ioos:station:DISL:CATA:1,2016-06-03T05:00:00Z,30.3085,-88.1395,71.98,1111122 
DISL,ioos:station:DISL:CATA:1,2016-06-03T05:30:00Z,30.3085,-88.1395,72.63,1111122 
DISL,ioos:station:DISL:CATA:1,2016-06-03T06:30:00Z,30.3085,-88.1395,72.8,1111122 
DISL,ioos:station:DISL:CATA:1,2016-06-03T07:00:00Z,30.3085,-88.1395,75.75,1111122 
DISL,ioos:station:DISL:CATA:1,2016-06-03T07:30:00Z,30.3085,-88.1395,73.35,1111122 
DISL,ioos:station:DISL:CATA:1,2016-06-03T08:00:00Z,30.3085,-88.1395,74.79,1111122 
DISL,ioos:station:DISL:CATA:1,2016-06-03T08:30:00Z,30.3085,-88.1395,76.57,1111122 
DISL,ioos:station:DISL:CATA:1,2016-06-03T09:00:00Z,30.3085,-88.1395,73.25,1111122 
DISL,ioos:station:DISL:CATA:1,2016-06-03T09:30:00Z,30.3085,-88.1395,75.68,1111122 
DISL,ioos:station:DISL:CATA:1,2016-06-03T10:00:00Z,30.3085,-88.1395,76.61,1111122 
DISL,ioos:station:DISL:CATA:1,2016-06-03T10:30:00Z,30.3085,-88.1395,76.92,1111122 
DISL,ioos:station:DISL:CATA:1,2016-06-03T11:00:00Z,30.3085,-88.1395,73.87,1111122 
DISL,ioos:station:DISL:CATA:1,2016-06-03T11:30:00Z,30.3085,-88.1395,72.77,1111122 
DISL,ioos:station:DISL:CATA:1,2016-06-03T12:00:00Z,30.3085,-88.1395,72.63,1111122 
DISL,ioos:station:DISL:CATA:1,2016-06-03T12:30:00Z,30.3085,-88.1395,72.56,1111122 
DISL,ioos:station:DISL:CATA:1,2016-06-03T13:00:00Z,30.3085,-88.1395,67.97,1111122 
DISL,ioos:station:DISL:CATA:1,2016-06-03T13:30:00Z,30.3085,-88.1395,68.96,1111122 
DISL,ioos:station:DISL:CATA:1,2016-06-03T14:00:00Z,30.3085,-88.1395,68.14,1111122 
DISL,ioos:station:DISL:CATA:1,2016-06-03T14:30:00Z,30.3085,-88.1395,68.31,1111122 
DISL,ioos:station:DISL:CATA:1,2016-06-03T15:00:00Z,30.3085,-88.1395,71.32,1111122 
DISL,ioos:station:DISL:CATA:1,2016-06-03T15:30:00Z,30.3085,-88.1395,70.18,1111122 
DISL,ioos:station:DISL:CATA:1,2016-06-03T16:00:00Z,30.3085,-88.1395,72.6,1111122 
DISL,ioos:station:DISL:CATA:1,2016-06-03T16:30:00Z,30.3085,-88.1395,72.33,1111122 
DISL,ioos:station:DISL:CATA:1,2016-06-03T17:00:00Z,30.3085,-88.1395,68.43,1111122 
DISL,ioos:station:DISL:CATA:1,2016-06-03T17:30:00Z,30.3085,-88.1395,70.03,1111122 
DISL,ioos:station:DISL:CATA:1,2016-06-03T18:00:00Z,30.3085,-88.1395,69.63,1111122 
DISL,ioos:station:DISL:CATA:1,2016-06-03T18:30:00Z,30.3085,-88.1395,69.6,1111122 
DISL,ioos:station:DISL:CATA:1,2016-06-03T19:00:00Z,30.3085,-88.1395,71.94,1111122 
DISL,ioos:station:DISL:CATA:1,2016-06-03T19:30:00Z,30.3085,-88.1395,72.01,1111122 
DISL,ioos:station:DISL:CATA:1,2016-06-03T20:00:00Z,30.3085,-88.1395,68.07,1111122 
DISL,ioos:station:DISL:CATA:1,2016-06-03T20:30:00Z,30.3085,-88.1395,73.72,1111122 
DISL,ioos:station:DISL:CATA:1,2016-06-03T21:00:00Z,30.3085,-88.1395,72.94,1111122 
DISL,ioos:station:DISL:CATA:1,2016-06-03T21:30:00Z,30.3085,-88.1395,69.24,1111122 
DISL,ioos:station:DISL:CATA:1,2016-06-03T22:00:00Z,30.3085,-88.1395,72.63,1111122 
DISL,ioos:station:DISL:CATA:1,2016-06-03T22:30:00Z,30.3085,-88.1395,72.73,1111122 
DISL,ioos:station:DISL:CATA:1,2016-06-03T23:00:00Z,30.3085,-88.1395,72.63,1111122 
DISL,ioos:station:DISL:CATA:1,2016-06-03T23:30:00Z,30.3085,-88.1395,73.31,1111122 
DISL,ioos:station:DISL:CATA:1,2016-06-04T00:00:00Z,30.3085,-88.1395,75.98,1111122 
DISL,ioos:station:DISL:CATA:1,2016-06-04T00:30:00Z,30.3085,-88.1395,75.95,1111122 
DISL,ioos:station:DISL:CATA:1,2016-06-04T01:00:00Z,30.3085,-88.1395,76.94,1111122 
DISL,ioos:station:DISL:CATA:1,2016-06-04T01:30:00Z,30.3085,-88.1395,76.5,1111122 
DISL,ioos:station:DISL:CATA:1,2016-06-04T02:00:00Z,30.3085,-88.1395,76.36,1111122 
DISL,ioos:station:DISL:CATA:1,2016-06-04T02:30:00Z,30.3085,-88.1395,77.73,1111122 
DISL,ioos:station:DISL:CATA:1,2016-06-04T03:00:00Z,30.3085,-88.1395,79.27,1111122 
DISL,ioos:station:DISL:CATA:1,2016-06-04T03:30:00Z,30.3085,-88.1395,80.7,1111122 
DISL,ioos:station:DISL:CATA:1,2016-06-04T04:00:00Z,30.3085,-88.1395,74.48,1111122 
DISL,ioos:station:DISL:CATA:1,2016-06-04T04:30:00Z,30.3085,-88.1395,77.15,1111122 
DISL,ioos:station:DISL:CATA:1,2016-06-04T05:00:00Z,30.3085,-88.1395,76.16,1111122 
DISL,ioos:station:DISL:CATA:1,2016-06-04T05:30:00Z,30.3085,-88.1395,75.03,1111122 
DISL,ioos:station:DISL:CATA:1,2016-06-04T06:30:00Z,30.3085,-88.1395,86.5,1111122 
DISL,ioos:station:DISL:CATA:1,2016-06-04T07:00:00Z,30.3085,-88.1395,86.1,1111122 
DISL,ioos:station:DISL:CATA:1,2016-06-04T07:30:00Z,30.3085,-88.1395,79.19,1111122 
DISL,ioos:station:DISL:CATA:1,2016-06-04T08:00:00Z,30.3085,-88.1395,75.25,1111122 
DISL,ioos:station:DISL:CATA:1,2016-06-04T08:30:00Z,30.3085,-88.1395,76.93,1111122 
DISL,ioos:station:DISL:CATA:1,2016-06-04T09:00:00Z,30.3085,-88.1395,78.84,1111122 
DISL,ioos:station:DISL:CATA:1,2016-06-04T09:30:00Z,30.3085,-88.1395,72.98,1111122 
DISL,ioos:station:DISL:CATA:1,2016-06-04T10:00:00Z,30.3085,-88.1395,75.79,1111122 
DISL,ioos:station:DISL:CATA:1,2016-06-04T10:30:00Z,30.3085,-88.1395,77.23,1111122 
DISL,ioos:station:DISL:CATA:1,2016-06-04T11:00:00Z,30.3085,-88.1395,80.8,1111122 
DISL,ioos:station:DISL:CATA:1,2016-06-04T11:30:00Z,30.3085,-88.1395,80.8,1111122 
DISL,ioos:station:DISL:CATA:1,2016-06-04T12:00:00Z,30.3085,-88.1395,84.2,1111122 
DISL,ioos:station:DISL:CATA:1,2016-06-04T12:30:00Z,30.3085,-88.1395,86.3,1111122 
DISL,ioos:station:DISL:CATA:1,2016-06-04T13:00:00Z,30.3085,-88.1395,87.9,1111122 
DISL,ioos:station:DISL:CATA:1,2016-06-04T13:30:00Z,30.3085,-88.1395,88.7,1111122 
DISL,ioos:station:DISL:CATA:1,2016-06-04T14:00:00Z,30.3085,-88.1395,81.3,1111122 
DISL,ioos:station:DISL:CATA:1,2016-06-04T14:30:00Z,30.3085,-88.1395,83.3,1111122 
DISL,ioos:station:DISL:CATA:1,2016-06-04T15:00:00Z,30.3085,-88.1395,85.4,1111122 
DISL,ioos:station:DISL:CATA:1,2016-06-04T15:30:00Z,30.3085,-88.1395,81.8,1111122 
DISL,ioos:station:DISL:CATA:1,2016-06-04T16:00:00Z,30.3085,-88.1395,77.01,1111122 
DISL,ioos:station:DISL:CATA:1,2016-06-04T16:30:00Z,30.3085,-88.1395,78.83,1111122 
DISL,ioos:station:DISL:CATA:1,2016-06-04T17:00:00Z,30.3085,-88.1395,80.3,1111122 
DISL,ioos:station:DISL:CATA:1,2016-06-04T17:30:00Z,30.3085,-88.1395,79.79,1111122 
DISL,ioos:station:DISL:CATA:1,2016-06-04T18:00:00Z,30.3085,-88.1395,75.81,1111122 
DISL,ioos:station:DISL:CATA:1,2016-06-04T18:30:00Z,30.3085,-88.1395,76.84,1111122 
DISL,ioos:station:DISL:CATA:1,2016-06-04T19:00:00Z,30.3085,-88.1395,75.92,1111122 
DISL,ioos:station:DISL:CATA:1,2016-06-04T19:30:00Z,30.3085,-88.1395,79.03,1111122 
DISL,ioos:station:DISL:CATA:1,2016-06-04T20:00:00Z,30.3085,-88.1395,74.82,1111122 
DISL,ioos:station:DISL:CATA:1,2016-06-04T20:30:00Z,30.3085,-88.1395,80.2,1111122 
DISL,ioos:station:DISL:CATA:1,2016-06-04T21:00:00Z,30.3085,-88.1395,70.57,1111122 
DISL,ioos:station:DISL:CATA:1,2016-06-04T21:30:00Z,30.3085,-88.1395,74.72,1111122 
DISL,ioos:station:DISL:CATA:1,2016-06-04T22:00:00Z,30.3085,-88.1395,78.07,1111122 
DISL,ioos:station:DISL:CATA:1,2016-06-04T22:30:00Z,30.3085,-88.1395,82.0,1111122 
DISL,ioos:station:DISL:CATA:1,2016-06-04T23:00:00Z,30.3085,-88.1395,83.1,1111122 
DISL,ioos:station:DISL:CATA:1,2016-06-04T23:30:00Z,30.3085,-88.1395,82.3,1111122 
DISL,ioos:station:DISL:CATA:1,2016-06-05T00:00:00Z,30.3085,-88.1395,83.5,1111122 
DISL,ioos:station:DISL:CATA:1,2016-06-05T00:30:00Z,30.3085,-88.1395,75.75,1111122 
DISL,ioos:station:DISL:CATA:1,2016-06-05T01:00:00Z,30.3085,-88.1395,80.0,1111122 
DISL,ioos:station:DISL:CATA:1,2016-06-05T01:30:00Z,30.3085,-88.1395,81.4,1111122 
DISL,ioos:station:DISL:CATA:1,2016-06-05T02:00:00Z,30.3085,-88.1395,83.3,1111122 
DISL,ioos:station:DISL:CATA:1,2016-06-05T02:30:00Z,30.3085,-88.1395,76.0,1111122 
DISL,ioos:station:DISL:CATA:1,2016-06-05T03:00:00Z,30.3085,-88.1395,78.94,1111122 
DISL,ioos:station:DISL:CATA:1,2016-06-05T03:30:00Z,30.3085,-88.1395,80.5,1111122 
DISL,ioos:station:DISL:CATA:1,2016-06-05T04:00:00Z,30.3085,-88.1395,77.75,1111122 
DISL,ioos:station:DISL:CATA:1,2016-06-05T04:30:00Z,30.3085,-88.1395,79.66,1111122 
DISL,ioos:station:DISL:CATA:1,2016-06-05T05:00:00Z,30.3085,-88.1395,83.9,1111122 
DISL,ioos:station:DISL:CATA:1,2016-06-05T05:30:00Z,30.3085,-88.1395,80.8,1111122 
DISL,ioos:station:DISL:CATA:1,2016-06-05T06:30:00Z,30.3085,-88.1395,90.3,1111122 
DISL,ioos:station:DISL:CATA:1,2016-06-05T07:00:00Z,30.3085,-88.1395,91.0,1111122 
DISL,ioos:station:DISL:CATA:1,2016-06-05T07:30:00Z,30.3085,-88.1395,92.1,1111122 
DISL,ioos:station:DISL:CATA:1,2016-06-05T08:00:00Z,30.3085,-88.1395,91.0,1111122 
DISL,ioos:station:DISL:CATA:1,2016-06-05T08:30:00Z,30.3085,-88.1395,91.3,1111122 
DISL,ioos:station:DISL:CATA:1,2016-06-05T09:00:00Z,30.3085,-88.1395,86.6,1111122 
DISL,ioos:station:DISL:CATA:1,2016-06-05T09:30:00Z,30.3085,-88.1395,85.8,1111122 
DISL,ioos:station:DISL:CATA:1,2016-06-05T10:00:00Z,30.3085,-88.1395,86.3,1111122 
DISL,ioos:station:DISL:CATA:1,2016-06-05T10:30:00Z,30.3085,-88.1395,87.1,1111122 
DISL,ioos:station:DISL:CATA:1,2016-06-05T11:00:00Z,30.3085,-88.1395,84.2,1111122 
DISL,ioos:station:DISL:CATA:1,2016-06-05T11:30:00Z,30.3085,-88.1395,85.5,1111122 
DISL,ioos:station:DISL:CATA:1,2016-06-05T12:00:00Z,30.3085,-88.1395,85.1,1111122 
DISL,ioos:station:DISL:CATA:1,2016-06-05T12:30:00Z,30.3085,-88.1395,82.1,1111122 
DISL,ioos:station:DISL:CATA:1,2016-06-05T13:00:00Z,30.3085,-88.1395,81.5,1111122 
DISL,ioos:station:DISL:CATA:1,2016-06-05T13:30:00Z,30.3085,-88.1395,73.89,1111122 
DISL,ioos:station:DISL:CATA:1,2016-06-05T14:00:00Z,30.3085,-88.1395,79.23,1111122 
DISL,ioos:station:DISL:CATA:1,2016-06-05T14:30:00Z,30.3085,-88.1395,77.79,1111122 
DISL,ioos:station:DISL:CATA:1,2016-06-05T15:00:00Z,30.3085,-88.1395,76.72,1111122 
DISL,ioos:station:DISL:CATA:1,2016-06-05T15:30:00Z,30.3085,-88.1395,76.03,1111122 
DISL,ioos:station:DISL:CATA:1,2016-06-05T16:00:00Z,30.3085,-88.1395,74.1,1111122 
DISL,ioos:station:DISL:CATA:1,2016-06-05T16:30:00Z,30.3085,-88.1395,76.88,1111122 
DISL,ioos:station:DISL:CATA:1,2016-06-05T17:00:00Z,30.3085,-88.1395,72.29,1111122 
DISL,ioos:station:DISL:CATA:1,2016-06-05T17:30:00Z,30.3085,-88.1395,71.94,1111122 
DISL,ioos:station:DISL:CATA:1,2016-06-05T18:00:00Z,30.3085,-88.1395,74.85,1111122 
DISL,ioos:station:DISL:CATA:1,2016-06-05T18:30:00Z,30.3085,-88.1395,74.85,1111122 
DISL,ioos:station:DISL:CATA:1,2016-06-05T19:00:00Z,30.3085,-88.1395,74.96,1111122 
DISL,ioos:station:DISL:CATA:1,2016-06-05T19:30:00Z,30.3085,-88.1395,71.74,1111122 
DISL,ioos:station:DISL:CATA:1,2016-06-05T20:00:00Z,30.3085,-88.1395,70.44,1111122 
DISL,ioos:station:DISL:CATA:1,2016-06-05T20:30:00Z,30.3085,-88.1395,71.5,1111122 
DISL,ioos:station:DISL:CATA:1,2016-06-05T21:00:00Z,30.3085,-88.1395,72.97,1111122 
DISL,ioos:station:DISL:CATA:1,2016-06-05T21:30:00Z,30.3085,-88.1395,73.9,1111122 
DISL,ioos:station:DISL:CATA:1,2016-06-05T22:00:00Z,30.3085,-88.1395,76.77,1111122 
DISL,ioos:station:DISL:CATA:1,2016-06-05T22:30:00Z,30.3085,-88.1395,74.34,1111122 
DISL,ioos:station:DISL:CATA:1,2016-06-05T23:00:00Z,30.3085,-88.1395,73.76,1111122 
DISL,ioos:station:DISL:CATA:1,2016-06-05T23:30:00Z,30.3085,-88.1395,73.14,1111122 
DISL,ioos:station:DISL:CATA:1,2016-06-06T00:00:00Z,30.3085,-88.1395,74.99,1111122 
DISL,ioos:station:DISL:CATA:1,2016-06-06T00:30:00Z,30.3085,-88.1395,78.42,1111122 
DISL,ioos:station:DISL:CATA:1,2016-06-06T01:00:00Z,30.3085,-88.1395,77.7,1111122 
DISL,ioos:station:DISL:CATA:1,2016-06-06T01:30:00Z,30.3085,-88.1395,76.7,1111122 
DISL,ioos:station:DISL:CATA:1,2016-06-06T02:00:00Z,30.3085,-88.1395,76.02,1111122 
DISL,ioos:station:DISL:CATA:1,2016-06-06T02:30:00Z,30.3085,-88.1395,78.83,1111122 
DISL,ioos:station:DISL:CATA:1,2016-06-06T03:00:00Z,30.3085,-88.1395,79.38,1111122 
DISL,ioos:station:DISL:CATA:1,2016-06-06T03:30:00Z,30.3085,-88.1395,80.6,1111122 
DISL,ioos:station:DISL:CATA:1,2016-06-06T04:00:00Z,30.3085,-88.1395,82.7,1111122 
DISL,ioos:station:DISL:CATA:1,2016-06-06T04:30:00Z,30.3085,-88.1395,82.9,1111122 
DISL,ioos:station:DISL:CATA:1,2016-06-06T05:00:00Z,30.3085,-88.1395,79.24,1111122 
DISL,ioos:station:DISL:CATA:1,2016-06-06T05:30:00Z,30.3085,-88.1395,82.0,1111122 
DISL,ioos:station:DISL:CATA:1,2016-06-06T06:30:00Z,30.3085,-88.1395,82.9,1111122 
DISL,ioos:station:DISL:CATA:1,2016-06-06T07:00:00Z,30.3085,-88.1395,83.2,1111122 
DISL,ioos:station:DISL:CATA:1,2016-06-06T07:30:00Z,30.3085,-88.1395,83.6,1111122 
DISL,ioos:station:DISL:CATA:1,2016-06-06T08:00:00Z,30.3085,-88.1395,86.5,1111122 
DISL,ioos:station:DISL:CATA:1,2016-06-06T08:30:00Z,30.3085,-88.1395,87.0,1111122 
DISL,ioos:station:DISL:CATA:1,2016-06-06T09:00:00Z,30.3085,-88.1395,88.5,1111122 
DISL,ioos:station:DISL:CATA:1,2016-06-06T09:30:00Z,30.3085,-88.1395,87.4,1111122 
DISL,ioos:station:DISL:CATA:1,2016-06-06T10:00:00Z,30.3085,-88.1395,87.6,1111122 
DISL,ioos:station:DISL:CATA:1,2016-06-06T10:30:00Z,30.3085,-88.1395,89.2,1111122 
DISL,ioos:station:DISL:CATA:1,2016-06-06T11:00:00Z,30.3085,-88.1395,88.9,1111122 
DISL,ioos:station:DISL:CATA:1,2016-06-06T11:30:00Z,30.3085,-88.1395,89.5,1111122 
DISL,ioos:station:DISL:CATA:1,2016-06-06T12:00:00Z,30.3085,-88.1395,88.7,1111122 
DISL,ioos:station:DISL:CATA:1,2016-06-06T12:30:00Z,30.3085,-88.1395,87.5,1111122 
DISL,ioos:station:DISL:CATA:1,2016-06-06T13:00:00Z,30.3085,-88.1395,85.3,1111122 
DISL,ioos:station:DISL:CATA:1,2016-06-06T13:30:00Z,30.3085,-88.1395,88.1,1111122 
DISL,ioos:station:DISL:CATA:1,2016-06-06T14:00:00Z,30.3085,-88.1395,90.2,1111122 
DISL,ioos:station:DISL:CATA:1,2016-06-06T14:30:00Z,30.3085,-88.1395,87.8,1111122 
DISL,ioos:station:DISL:CATA:1,2016-06-06T15:00:00Z,30.3085,-88.1395,87.8,1111122 
DISL,ioos:station:DISL:CATA:1,2016-06-06T15:30:00Z,30.3085,-88.1395,87.0,1111122 
DISL,ioos:station:DISL:CATA:1,2016-06-06T16:00:00Z,30.3085,-88.1395,85.4,1111122 
DISL,ioos:station:DISL:CATA:1,2016-06-06T16:30:00Z,30.3085,-88.1395,83.9,1111122 
DISL,ioos:station:DISL:CATA:1,2016-06-06T17:00:00Z,30.3085,-88.1395,83.4,1111122 
DISL,ioos:station:DISL:CATA:1,2016-06-06T17:30:00Z,30.3085,-88.1395,80.9,1111122 
DISL,ioos:station:DISL:CATA:1,2016-06-06T18:00:00Z,30.3085,-88.1395,80.8,1111122 
DISL,ioos:station:DISL:CATA:1,2016-06-06T18:30:00Z,30.3085,-88.1395,76.91,1111122 
DISL,ioos:station:DISL:CATA:1,2016-06-06T19:00:00Z,30.3085,-88.1395,76.09,1111122 
DISL,ioos:station:DISL:CATA:1,2016-06-06T19:30:00Z,30.3085,-88.1395,76.05,1111122 
DISL,ioos:station:DISL:CATA:1,2016-06-06T20:00:00Z,30.3085,-88.1395,74.75,1111122 
DISL,ioos:station:DISL:CATA:1,2016-06-06T20:30:00Z,30.3085,-88.1395,72.8,1111122 
DISL,ioos:station:DISL:CATA:1,2016-06-06T21:00:00Z,30.3085,-88.1395,74.87,1111122 
DISL,ioos:station:DISL:CATA:1,2016-06-06T21:30:00Z,30.3085,-88.1395,75.83,1111122 
DISL,ioos:station:DISL:CATA:1,2016-06-06T22:00:00Z,30.3085,-88.1395,70.35,1111122 
DISL,ioos:station:DISL:CATA:1,2016-06-06T22:30:00Z,30.3085,-88.1395,69.53,1111122 
DISL,ioos:station:DISL:CATA:1,2016-06-06T23:00:00Z,30.3085,-88.1395,69.84,1111122 
DISL,ioos:station:DISL:CATA:1,2016-06-06T23:30:00Z,30.3085,-88.1395,70.66,1111122 
DISL,ioos:station:DISL:CATA:1,2016-06-07T00:00:00Z,30.3085,-88.1395,72.97,1111122 
DISL,ioos:station:DISL:CATA:1,2016-06-07T00:30:00Z,30.3085,-88.1395,70.5,1111122 
DISL,ioos:station:DISL:CATA:1,2016-06-07T01:00:00Z,30.3085,-88.1395,76.19,1111122 
DISL,ioos:station:DISL:CATA:1,2016-06-07T01:30:00Z,30.3085,-88.1395,76.09,1111122 
DISL,ioos:station:DISL:CATA:1,2016-06-07T02:00:00Z,30.3085,-88.1395,76.77,1111122 
DISL,ioos:station:DISL:CATA:1,2016-06-07T02:30:00Z,30.3085,-88.1395,76.91,1111122 
DISL,ioos:station:DISL:CATA:1,2016-06-07T03:00:00Z,30.3085,-88.1395,77.97,1111122 